星链-30352 (STARLINK-30352 )

导读

STARLINK-30352是美国星链计划的卫星,于2023年9月1日发射。星链项目依托低轨卫星星座构建全球互联网覆盖网络,该卫星入轨后,参与组网运行,为全球偏远、欠发达区域及海运、航空等移动场景,提供低延迟的宽带接入服务,进一步扩充了星链星座的服务覆盖范围和通信容量。

基本信息
目录编号:
57736
目录名称:
STARLINK-30352
国际标识:
2023-131E
轨道中心:
EARTH
卫星名称:
星链-30352
卫星全名:
星链-30352 (STARLINK-30352 )
卫星状态:
在轨 (已飞行1099 天)
发射日期:
2023-09-01 UTC
国别 :
美国 (US)
星等 :
--
轨道信息
数据来源 国际轨道数据 AOE轨道数据
星历时间 2026-09-04T15:04:27+0800
6小时前
查看轨道信息
2026-08-29T08:00:00+0800
6天前
查看轨道信息
半长轴 6861.191km 6861.194km
偏心率 0.000124 0.0001852
轨道倾角 43.002° 43.004°
近地点辐角 268.513° 260.838°
升交点赤经 251.290° 286.837°
平近点角 91.558° 1.994°
近地点 482.203km 481.786km
远地点 483.905km 484.328km
周期 94.267分钟 94.267分钟
每日圈数 15.275786 15.275775
详细信息
固有亮度:
5
最大亮度:
0.3
卫星平台:
Starlink v2.0 mini
覆盖范围:
全球
运营商:
太空探索技术公司
运营商所在国:
美国
制造商(研发单位):
太空探索技术公司
制造商所在国:
美国
使用方式:
暂无
卫星简介
星链(Starlink)计划是由太空探索技术公司(SpaceX)提出的一个巨型低轨卫星互联网星座项目,计划在2019年至2024年间在太空搭建由约1.2万颗卫星组成的“星链”网络,其中1584颗将部署在地球上空550千米处的近地轨道,并从2020年开始工作。该卫星仍在工作。
2D轨道图
3D轨道图
轨道高度分析图
轨道倾角分析图
轨道综合分析图
查看轨道综合分析图
交会数据列表
事件ID 空间交会对象 最接近时刻(TCA) 交会距离 交会风险概率(CRP) 交会风险指数(CRI) 操作
CDM_260906-103305-773606-742821
2026-09-06T
10:33:49+0000
0.697 km
远距离
4.206584E-5 中风险 0.67
CDM_260903-164305-773606-260122
2026-09-03T
16:43:57+0000
0.862 km
远距离
2.873943E-5 中风险 0.64
CDM_260903-150905-773606-260123
2026-09-03T
15:09:48+0000
1.445 km
极远距离
4.927945E-6 低风险 0.49
CDM_260906-120705-773606-742821
2026-09-06T
12:07:58+0000
1.561 km
极远距离
2.88923E-6 低风险 0.44
CDM_260903-162304-704105-773622
2026-09-03T
16:23:12+0000
2.747 km
极远距离
1.104454E-6 低风险 0.36
CDM_260906-085905-773606-742821
2026-09-06T
08:59:40+0000
2.750 km
极远距离
8.167629E-7 极低风险 0.33